Time,TemperatureF,DewpointF,PressureIn,WindDirection,WindDirectionDegrees,WindSpeedMPH,WindSpeedGustMPH,Humidity,HourlyPrecipIn,Conditions,Clouds,dailyrainin,SolarRadiationWatts/m^2,SoftwareType,DateUTC
2013-02-13 00:00:00,30.1,21.8,30.39,SW,225,2.0,-999.0,71,0.00,,,0.00,0,Wunderground v.1.15,2013-02-13 08:00:00,
2013-02-13 00:05:00,30.1,21.8,30.39,SW,225,2.0,-999.0,71,0.00,,,0.00,0,Wunderground v.1.15,2013-02-13 08:05:00,
2013-02-13 00:10:00,30.0,21.7,30.39,SW,225,2.0,-999.0,71,0.00,,,0.00,0,Wunderground v.1.15,2013-02-13 08:10:00,
2013-02-13 00:15:00,29.9,21.3,30.39,SW,225,2.0,-999.0,70,0.00,,,0.00,0,Wunderground v.1.15,2013-02-13 08:15:00,
2013-02-13 00:20:00,29.7,21.1,30.39,SW,225,1.0,-999.0,70,0.00,,,0.00,0,Wunderground v.1.15,2013-02-13 08:20:00,
2013-02-13 00:25:00,29.6,21.0,30.39,SW,225,2.0,-999.0,70,0.00,,,0.00,0,Wunderground v.1.15,2013-02-13 08:25:00,
2013-02-13 00:30:00,29.5,21.3,30.39,SW,225,1.0,-999.0,71,0.00,,,0.00,0,Wunderground v.1.15,2013-02-13 08:30:00,
2013-02-13 00:35:00,29.5,20.9,30.39,SW,225,0.0,-999.0,70,0.00,,,0.00,0,Wunderground v.1.15,2013-02-13 08:35:00,
2013-02-13 00:40:00,29.5,21.3,30.39,SW,225,0.0,-999.0,71,0.00,,,0.00,0,Wunderground v.1.15,2013-02-13 08:40:00,
2013-02-13 00:45:00,28.4,19.9,30.39,SW,225,0.0,-999.0,70,0.00,,,0.00,0,Wunderground v.1.15,2013-02-13 08:45:00,
2013-02-13 00:50:00,27.7,20.5,30.39,SW,225,0.0,-999.0,74,0.00,,,0.00,0,Wunderground v.1.15,2013-02-13 08:50:00,
2013-02-13 00:55:00,27.6,20.7,30.40,SW,225,1.0,-999.0,75,0.00,,,0.00,0,Wunderground v.1.15,2013-02-13 08:55:00,
2013-02-13 01:00:00,28.0,21.4,30.40,SW,225,1.0,-999.0,76,0.00,,,0.00,0,Wunderground v.1.15,2013-02-13 09:00:00,
2013-02-13 01:05:00,28.1,21.2,30.40,SW,225,1.0,-999.0,75,0.00,,,0.00,0,Wunderground v.1.15,2013-02-13 09:05:00,
2013-02-13 01:10:00,27.6,21.0,30.40,SW,225,1.0,-999.0,76,0.00,,,0.00,0,Wunderground v.1.15,2013-02-13 09:10:00,
2013-02-13 01:15:00,27.7,21.4,30.40,SW,225,1.0,-999.0,77,0.00,,,0.00,0,Wunderground v.1.15,2013-02-13 09:15:00,
2013-02-13 01:20:00,27.2,20.6,30.40,SW,225,1.0,-999.0,76,0.00,,,0.00,0,Wunderground v.1.15,2013-02-13 09:20:00,
2013-02-13 01:25:00,26.7,20.8,30.40,SW,225,1.0,-999.0,78,0.00,,,0.00,0,Wunderground v.1.15,2013-02-13 09:25:00,
2013-02-13 01:30:00,26.8,21.2,30.40,SW,225,1.0,-999.0,79,0.00,,,0.00,0,Wunderground v.1.15,2013-02-13 09:30:00,
2013-02-13 01:35:00,26.8,20.9,30.40,SW,225,1.0,-999.0,78,0.00,,,0.00,0,Wunderground v.1.15,2013-02-13 09:35:00,
2013-02-13 01:40:00,26.9,21.3,30.40,SW,225,1.0,-999.0,79,0.00,,,0.00,0,Wunderground v.1.15,2013-02-13 09:40:00,
2013-02-13 01:45:00,27.2,21.5,30.40,SW,225,0.0,-999.0,79,0.00,,,0.00,0,Wunderground v.1.15,2013-02-13 09:45:00,
2013-02-13 01:50:00,27.8,21.5,30.40,SW,225,1.0,-999.0,77,0.00,,,0.00,0,Wunderground v.1.15,2013-02-13 09:50:00,
2013-02-13 01:55:00,27.4,21.1,30.40,SW,225,1.0,-999.0,77,0.00,,,0.00,0,Wunderground v.1.15,2013-02-13 09:55:00,
2013-02-13 02:00:00,27.3,21.3,30.40,SW,225,0.0,-999.0,78,0.00,,,0.00,0,Wunderground v.1.15,2013-02-13 10:00:00,
2013-02-13 02:05:00,26.9,21.0,30.40,SW,225,1.0,-999.0,78,0.00,,,0.00,0,Wunderground v.1.15,2013-02-13 10:05:00,
2013-02-13 02:10:00,26.9,21.3,30.40,SW,225,1.0,-999.0,79,0.00,,,0.00,0,Wunderground v.1.15,2013-02-13 10:10:00,
2013-02-13 02:15:00,27.0,21.4,30.40,SW,225,1.0,-999.0,79,0.00,,,0.00,0,Wunderground v.1.15,2013-02-13 10:15:00,
2013-02-13 02:20:00,26.8,21.5,30.40,SW,225,1.0,-999.0,80,0.00,,,0.00,0,Wunderground v.1.15,2013-02-13 10:20:00,
2013-02-13 02:25:00,27.4,21.4,30.40,SW,225,1.0,-999.0,78,0.00,,,0.00,0,Wunderground v.1.15,2013-02-13 10:25:00,
2013-02-13 02:30:00,27.0,21.1,30.40,SW,225,0.0,-999.0,78,0.00,,,0.00,0,Wunderground v.1.15,2013-02-13 10:30:00,
2013-02-13 02:35:00,26.7,20.8,30.40,SW,225,1.0,-999.0,78,0.00,,,0.00,0,Wunderground v.1.15,2013-02-13 10:35:00,
2013-02-13 02:40:00,26.2,20.6,30.39,SW,225,1.0,-999.0,79,0.00,,,0.00,0,Wunderground v.1.15,2013-02-13 10:40:00,
2013-02-13 02:45:00,26.3,21.0,30.39,SW,225,2.0,-999.0,80,0.00,,,0.00,0,Wunderground v.1.15,2013-02-13 10:45:00,
2013-02-13 02:50:00,26.6,21.3,30.39,SW,225,2.0,-999.0,80,0.00,,,0.00,0,Wunderground v.1.15,2013-02-13 10:50:00,
2013-02-13 02:55:00,26.6,21.0,30.39,SW,225,2.0,-999.0,79,0.00,,,0.00,0,Wunderground v.1.15,2013-02-13 10:55:00,
2013-02-13 03:00:00,26.5,21.2,30.39,SW,225,1.0,-999.0,80,0.00,,,0.00,0,Wunderground v.1.15,2013-02-13 11:00:00,
2013-02-13 03:05:00,26.5,21.2,30.39,SW,225,2.0,-999.0,80,0.00,,,0.00,0,Wunderground v.1.15,2013-02-13 11:05:00,
2013-02-13 03:10:00,26.3,21.0,30.39,SW,225,1.0,-999.0,80,0.00,,,0.00,0,Wunderground v.1.15,2013-02-13 11:10:00,
2013-02-13 03:15:00,26.0,20.7,30.39,SW,225,1.0,-999.0,80,0.00,,,0.00,0,Wunderground v.1.15,2013-02-13 11:15:00,
2013-02-13 03:20:00,25.8,20.5,30.39,SW,225,0.0,-999.0,80,0.00,,,0.00,0,Wunderground v.1.15,2013-02-13 11:20:00,
2013-02-13 03:25:00,26.1,21.1,30.39,N/A,-737280,0.0,-999.0,81,0.00,,,0.00,0,Wunderground v.1.15,2013-02-13 11:25:00,
2013-02-13 03:30:00,25.5,20.2,30.38,SW,225,1.0,-999.0,80,0.00,,,0.00,0,Wunderground v.1.15,2013-02-13 11:30:00,
2013-02-13 03:35:00,25.2,20.5,30.38,SW,225,2.0,-999.0,82,0.00,,,0.00,0,Wunderground v.1.15,2013-02-13 11:35:00,
2013-02-13 03:40:00,25.4,20.7,30.38,SW,225,2.0,-999.0,82,0.00,,,0.00,0,Wunderground v.1.15,2013-02-13 11:40:00,
2013-02-13 03:45:00,25.6,20.9,30.37,SW,225,2.0,-999.0,82,0.00,,,0.00,0,Wunderground v.1.15,2013-02-13 11:45:00,
2013-02-13 03:50:00,26.0,21.3,30.37,SW,225,2.0,-999.0,82,0.00,,,0.00,0,Wunderground v.1.15,2013-02-13 11:50:00,
2013-02-13 03:55:00,26.6,21.6,30.37,SW,225,1.0,-999.0,81,0.00,,,0.00,0,Wunderground v.1.15,2013-02-13 11:55:00,
2013-02-13 04:00:00,26.6,21.3,30.37,SW,225,0.0,-999.0,80,0.00,,,0.00,0,Wunderground v.1.15,2013-02-13 12:00:00,
2013-02-13 04:05:00,26.7,20.8,30.37,SW,225,1.0,-999.0,78,0.00,,,0.00,0,Wunderground v.1.15,2013-02-13 12:05:00,
2013-02-13 04:10:00,26.4,20.8,30.38,SW,225,1.0,-999.0,79,0.00,,,0.00,0,Wunderground v.1.15,2013-02-13 12:10:00,
2013-02-13 04:15:00,26.3,21.0,30.37,N/A,-737280,0.0,-999.0,80,0.00,,,0.00,0,Wunderground v.1.15,2013-02-13 12:15:00,
2013-02-13 04:20:00,26.3,21.0,30.38,N/A,-737280,0.0,-999.0,80,0.00,,,0.00,0,Wunderground v.1.15,2013-02-13 12:20:00,
2013-02-13 04:25:00,27.0,21.4,30.38,SW,225,0.0,-999.0,79,0.00,,,0.00,0,Wunderground v.1.15,2013-02-13 12:25:00,
2013-02-13 04:30:00,26.8,21.2,30.38,SW,225,0.0,-999.0,79,0.00,,,0.00,0,Wunderground v.1.15,2013-02-13 12:30:00,
2013-02-13 04:35:00,26.0,20.1,30.38,SW,225,0.0,-999.0,78,0.00,,,0.00,0,Wunderground v.1.15,2013-02-13 12:35:00,
2013-02-13 04:40:00,25.7,20.7,30.38,SW,225,0.0,-999.0,81,0.00,,,0.00,0,Wunderground v.1.15,2013-02-13 12:40:00,
2013-02-13 04:45:00,25.6,20.3,30.38,N/A,-737280,0.0,-999.0,80,0.00,,,0.00,0,Wunderground v.1.15,2013-02-13 12:45:00,
2013-02-13 04:50:00,25.1,20.1,30.38,SW,225,1.0,-999.0,81,0.00,,,0.00,0,Wunderground v.1.15,2013-02-13 12:50:00,
2013-02-13 04:55:00,25.0,20.0,30.38,SW,225,1.0,-999.0,81,0.00,,,0.00,0,Wunderground v.1.15,2013-02-13 12:55:00,
2013-02-13 05:00:00,25.2,20.5,30.38,SW,225,1.0,-999.0,82,0.00,,,0.00,0,Wunderground v.1.15,2013-02-13 13:00:00,
2013-02-13 05:05:00,24.9,20.2,30.38,SW,225,1.0,-999.0,82,0.00,,,0.00,0,Wunderground v.1.15,2013-02-13 13:05:00,
2013-02-13 05:10:00,24.8,20.4,30.38,SW,225,1.0,-999.0,83,0.00,,,0.00,0,Wunderground v.1.15,2013-02-13 13:10:00,
2013-02-13 05:15:00,25.0,20.6,30.38,SW,225,1.0,-999.0,83,0.00,,,0.00,0,Wunderground v.1.15,2013-02-13 13:15:00,
2013-02-13 05:20:00,25.0,20.6,30.38,SW,225,0.0,-999.0,83,0.00,,,0.00,0,Wunderground v.1.15,2013-02-13 13:20:00,
2013-02-13 05:25:00,25.1,20.7,30.38,SW,225,0.0,-999.0,83,0.00,,,0.00,0,Wunderground v.1.15,2013-02-13 13:25:00,
2013-02-13 05:30:00,24.6,19.9,30.38,SW,225,0.0,-999.0,82,0.00,,,0.00,0,Wunderground v.1.15,2013-02-13 13:30:00,
2013-02-13 05:36:00,23.9,19.2,30.40,SW,224,0.0,3.0,82,0.00,,,0.00,0.0,meteohub,2013-02-13 13:36:00,
2013-02-13 05:37:00,23.9,19.2,30.40,SW,224,0.0,3.0,82,0.00,,,0.00,0.0,meteohub,2013-02-13 13:37:00,
2013-02-13 05:43:00,22.8,18.7,30.40,SW,224,5.0,5.0,84,0.00,,,0.00,0.0,meteohub,2013-02-13 13:43:00,
2013-02-13 05:48:00,22.6,18.5,30.40,SW,224,0.0,3.0,84,0.00,,,0.00,0.0,meteohub,2013-02-13 13:48:00,
2013-02-13 05:49:00,22.5,18.3,30.40,SW,224,0.0,3.0,84,0.00,,,0.00,0.0,meteohub,2013-02-13 13:49:00,
2013-02-13 05:54:00,22.5,18.9,30.40,SW,224,0.0,5.0,86,0.00,,,0.00,0.0,meteohub,2013-02-13 13:54:00,
2013-02-13 05:59:00,23.0,19.4,30.40,SW,224,5.0,5.0,86,0.00,,,0.00,0.0,meteohub,2013-02-13 13:59:00,
2013-02-13 06:09:00,23.7,20.1,30.40,SW,224,0.0,5.0,86,0.00,,,0.00,0.0,meteohub,2013-02-13 14:09:00,
2013-02-13 06:14:00,24.3,20.5,30.40,SW,224,0.0,5.0,85,0.00,,,0.00,0.0,meteohub,2013-02-13 14:14:00,
2013-02-13 06:19:00,24.1,19.9,30.40,SW,224,3.0,0.0,84,0.00,,,0.00,0.0,meteohub,2013-02-13 14:19:00,
2013-02-13 06:24:00,23.5,19.4,30.40,SW,224,3.0,5.0,84,0.00,,,0.00,0.0,meteohub,2013-02-13 14:24:00,
2013-02-13 06:29:00,22.6,18.5,30.40,SW,224,0.0,5.0,84,0.00,,,0.00,0.0,meteohub,2013-02-13 14:29:00,
2013-02-13 06:34:00,22.3,18.5,30.40,SW,224,0.0,5.0,85,0.00,,,0.00,0.0,meteohub,2013-02-13 14:34:00,
2013-02-13 06:39:00,22.8,19.2,30.40,SW,224,0.0,5.0,86,0.00,,,0.00,0.0,meteohub,2013-02-13 14:39:00,
2013-02-13 06:45:00,23.2,19.6,30.40,SW,224,3.0,3.0,86,0.00,,,0.00,0.0,meteohub,2013-02-13 14:45:00,
2013-02-13 06:50:00,23.2,19.6,30.40,SW,224,0.0,5.0,86,0.00,,,0.00,0.0,meteohub,2013-02-13 14:50:00,
2013-02-13 06:55:00,23.4,19.8,30.41,SW,224,0.0,5.0,86,0.00,,,0.00,5.0,meteohub,2013-02-13 14:55:00,
2013-02-13 07:00:00,23.7,20.1,30.41,SW,224,0.0,5.0,86,0.00,,,0.00,7.0,meteohub,2013-02-13 15:00:00,
2013-02-13 07:05:00,24.1,20.5,30.42,SW,224,0.0,5.0,86,0.00,,,0.00,11.0,meteohub,2013-02-13 15:05:00,
2013-02-13 07:10:00,24.4,20.3,30.42,SW,224,0.0,3.0,84,0.00,,,0.00,12.0,meteohub,2013-02-13 15:10:00,
2013-02-13 07:15:00,24.6,20.5,30.42,SW,224,3.0,3.0,84,0.00,,,0.00,14.0,meteohub,2013-02-13 15:15:00,
2013-02-13 07:20:00,25.0,20.8,30.42,SW,224,3.0,5.0,84,0.00,,,0.00,18.0,meteohub,2013-02-13 15:20:00,
2013-02-13 07:25:00,25.5,21.4,30.42,SW,224,3.0,5.0,84,0.00,,,0.00,21.0,meteohub,2013-02-13 15:25:00,
2013-02-13 07:30:00,26.2,22.1,30.42,SW,224,3.0,6.0,84,0.00,,,0.00,46.0,meteohub,2013-02-13 15:30:00,
2013-02-13 07:35:00,27.0,22.8,30.42,SW,224,5.0,6.0,84,0.00,,,0.00,81.0,meteohub,2013-02-13 15:35:00,
2013-02-13 07:40:00,28.0,23.2,30.42,SW,224,0.0,6.0,82,0.00,,,0.00,97.0,meteohub,2013-02-13 15:40:00,
2013-02-13 07:45:00,29.3,23.9,30.42,SW,224,3.0,6.0,80,0.00,,,0.00,113.0,meteohub,2013-02-13 15:45:00,
2013-02-13 07:50:00,30.4,24.3,30.42,SW,224,0.0,6.0,78,0.00,,,0.00,130.0,meteohub,2013-02-13 15:50:00,
2013-02-13 07:55:00,31.3,25.0,30.42,SW,224,0.0,6.0,77,0.00,,,0.00,148.0,meteohub,2013-02-13 15:55:00,
2013-02-13 08:01:00,32.0,25.0,30.42,SW,224,0.0,6.0,75,0.00,,,0.00,171.0,meteohub,2013-02-13 16:01:00,
2013-02-13 08:06:00,32.4,24.6,30.42,SW,224,0.0,5.0,73,0.00,,,0.00,190.0,meteohub,2013-02-13 16:06:00,
2013-02-13 08:11:00,32.7,24.4,30.45,SW,214,0.0,5.0,71,0.00,,,0.00,214.0,meteohub,2013-02-13 16:11:00,
2013-02-13 08:16:00,33.1,24.4,30.45,SSW,213,0.0,5.0,70,0.00,,,0.00,236.0,meteohub,2013-02-13 16:16:00,
2013-02-13 08:21:00,33.4,24.1,30.45,SSW,213,0.0,5.0,68,0.00,,,0.00,253.0,meteohub,2013-02-13 16:21:00,
2013-02-13 08:26:00,33.6,24.6,30.45,SSW,213,0.0,3.0,69,0.00,,,0.00,271.0,meteohub,2013-02-13 16:26:00,
2013-02-13 08:31:00,34.2,24.4,30.45,SSW,213,0.0,3.0,67,0.00,,,0.00,287.0,meteohub,2013-02-13 16:31:00,
2013-02-13 08:36:00,34.5,24.3,30.44,SSW,213,0.0,5.0,66,0.00,,,0.00,301.0,meteohub,2013-02-13 16:36:00,
2013-02-13 08:41:00,34.9,24.6,30.45,SSW,211,6.0,6.0,66,0.00,,,0.00,318.0,meteohub,2013-02-13 16:41:00,
2013-02-13 08:46:00,34.7,24.8,30.44,East,90,3.0,7.0,67,0.00,,,0.00,334.0,meteohub,2013-02-13 16:46:00,
2013-02-13 08:51:00,35.2,25.3,30.44,East,96,3.0,7.0,67,0.00,,,0.00,350.0,meteohub,2013-02-13 16:51:00,
2013-02-13 08:56:00,36.3,25.7,30.44,East,96,3.0,7.0,65,0.00,,,0.00,367.0,meteohub,2013-02-13 16:56:00,
2013-02-13 09:01:00,36.7,26.1,30.44,East,94,0.0,7.0,65,0.00,,,0.00,381.0,meteohub,2013-02-13 17:01:00,
2013-02-13 09:07:00,37.0,25.7,30.44,East,94,3.0,7.0,63,0.00,,,0.00,396.0,meteohub,2013-02-13 17:07:00,
2013-02-13 09:12:00,37.0,25.7,30.44,East,90,3.0,7.0,63,0.00,,,0.00,411.0,meteohub,2013-02-13 17:12:00,
2013-02-13 09:17:00,37.0,25.2,30.44,NE,39,7.0,9.0,62,0.00,,,0.00,427.0,meteohub,2013-02-13 17:17:00,
2013-02-13 09:22:00,37.0,25.2,30.45,NE,37,5.0,9.0,62,0.00,,,0.00,438.0,meteohub,2013-02-13 17:22:00,
2013-02-13 09:27:00,37.0,25.7,30.45,NNE,15,3.0,9.0,63,0.00,,,0.00,452.0,meteohub,2013-02-13 17:27:00,
2013-02-13 09:32:00,37.2,26.2,30.45,North,5,5.0,9.0,64,0.00,,,0.00,468.0,meteohub,2013-02-13 17:32:00,
2013-02-13 09:37:00,37.0,26.1,30.45,NNE,12,5.0,9.0,64,0.00,,,0.00,476.0,meteohub,2013-02-13 17:37:00,
2013-02-13 09:42:00,37.4,26.4,30.45,NNE,13,0.0,8.0,64,0.00,,,0.00,490.0,meteohub,2013-02-13 17:42:00,
2013-02-13 09:47:00,37.6,26.1,30.45,NNE,17,7.0,8.0,63,0.00,,,0.00,503.0,meteohub,2013-02-13 17:47:00,
2013-02-13 09:52:00,37.8,26.2,30.45,North,5,8.0,8.0,63,0.00,,,0.00,515.0,meteohub,2013-02-13 17:52:00,
2013-02-13 09:57:00,38.1,26.6,30.45,North,0,0.0,8.0,63,0.00,,,0.00,526.0,meteohub,2013-02-13 17:57:00,
2013-02-13 10:02:00,38.7,26.1,30.45,North,0,7.0,8.0,60,0.00,,,0.00,538.0,meteohub,2013-02-13 18:02:00,
2013-02-13 10:08:00,38.8,26.1,30.45,NNW,336,5.0,8.0,60,0.00,,,0.00,548.0,meteohub,2013-02-13 18:08:00,
2013-02-13 10:13:00,38.8,26.1,30.45,NNW,335,7.0,9.0,60,0.00,,,0.00,555.0,meteohub,2013-02-13 18:13:00,
2013-02-13 10:18:00,39.4,26.2,30.45,North,351,3.0,9.0,59,0.00,,,0.00,568.0,meteohub,2013-02-13 18:18:00,
2013-02-13 10:23:00,39.6,26.1,30.45,North,350,3.0,9.0,58,0.00,,,0.00,578.0,meteohub,2013-02-13 18:23:00,
2013-02-13 10:28:00,40.1,26.1,30.45,NW,323,0.0,8.0,57,0.00,,,0.00,589.0,meteohub,2013-02-13 18:28:00,
2013-02-13 10:33:00,40.5,26.1,30.45,NW,314,5.0,9.0,56,0.00,,,0.00,598.0,meteohub,2013-02-13 18:33:00,
2013-02-13 10:38:00,40.5,25.5,30.45,NW,314,5.0,9.0,55,0.00,,,0.00,606.0,meteohub,2013-02-13 18:38:00,
2013-02-13 10:43:00,41.4,25.5,30.45,North,9,9.0,9.0,53,0.00,,,0.00,615.0,meteohub,2013-02-13 18:43:00,
2013-02-13 10:48:00,42.1,26.2,30.44,NNE,13,3.0,11.0,53,0.00,,,0.00,619.0,meteohub,2013-02-13 18:48:00,
2013-02-13 10:53:00,42.4,26.1,30.45,NE,39,0.0,11.0,52,0.00,,,0.00,628.0,meteohub,2013-02-13 18:53:00,
2013-02-13 10:58:00,42.3,25.9,30.45,NE,36,7.0,11.0,52,0.00,,,0.00,631.0,meteohub,2013-02-13 18:58:00,
2013-02-13 11:03:00,43.2,25.7,30.44,ENE,57,8.0,11.0,50,0.00,,,0.00,638.0,meteohub,2013-02-13 19:03:00,
2013-02-13 11:08:00,42.1,24.8,30.44,NE,34,3.0,11.0,50,0.00,,,0.00,649.0,meteohub,2013-02-13 19:08:00,
2013-02-13 11:13:00,42.4,25.5,30.44,ENE,59,5.0,9.0,51,0.00,,,0.00,649.0,meteohub,2013-02-13 19:13:00,
2013-02-13 11:19:00,42.6,25.7,30.44,ENE,59,3.0,11.0,51,0.00,,,0.00,657.0,meteohub,2013-02-13 19:19:00,
2013-02-13 11:24:00,43.3,25.9,30.43,NNE,21,7.0,11.0,50,0.00,,,0.00,666.0,meteohub,2013-02-13 19:24:00,
2013-02-13 11:29:00,43.5,25.7,30.43,NNE,20,5.0,11.0,49,0.00,,,0.00,670.0,meteohub,2013-02-13 19:29:00,
2013-02-13 11:34:00,43.2,24.8,30.43,NNE,20,0.0,8.0,48,0.00,,,0.00,673.0,meteohub,2013-02-13 19:34:00,
2013-02-13 11:39:00,44.1,26.1,30.43,NNW,346,5.0,8.0,49,0.00,,,0.00,671.0,meteohub,2013-02-13 19:39:00,
2013-02-13 11:44:00,44.8,25.7,30.42,NW,311,3.0,7.0,47,0.00,,,0.00,679.0,meteohub,2013-02-13 19:44:00,
2013-02-13 11:49:00,46.0,27.0,30.41,NW,310,5.0,8.0,47,0.00,,,0.00,677.0,meteohub,2013-02-13 19:49:00,
2013-02-13 11:54:00,46.2,25.5,30.41,NW,311,3.0,8.0,44,0.00,,,0.00,677.0,meteohub,2013-02-13 19:54:00,
2013-02-13 11:59:00,46.0,25.3,30.41,North,11,5.0,8.0,44,0.00,,,0.00,675.0,meteohub,2013-02-13 19:59:00,
2013-02-13 12:04:00,46.6,25.3,30.40,ENE,71,0.0,8.0,43,0.00,,,0.00,673.0,meteohub,2013-02-13 20:04:00,
2013-02-13 12:09:00,46.8,24.8,30.40,ENE,71,0.0,8.0,42,0.00,,,0.00,673.0,meteohub,2013-02-13 20:09:00,
2013-02-13 12:14:00,47.5,26.1,30.40,ENE,73,7.0,8.0,43,0.00,,,0.00,671.0,meteohub,2013-02-13 20:14:00,
2013-02-13 12:19:00,47.8,24.6,30.40,ENE,67,8.0,8.0,40,0.00,,,0.00,668.0,meteohub,2013-02-13 20:19:00,
2013-02-13 12:24:00,47.5,25.5,30.39,ENE,65,0.0,9.0,42,0.00,,,0.00,664.0,meteohub,2013-02-13 20:24:00,
2013-02-13 12:30:00,48.2,26.2,30.39,NE,53,5.0,9.0,42,0.00,,,0.00,663.0,meteohub,2013-02-13 20:30:00,
2013-02-13 12:35:00,48.0,25.5,30.39,NE,56,3.0,9.0,41,0.00,,,0.00,663.0,meteohub,2013-02-13 20:35:00,
2013-02-13 12:40:00,48.6,26.4,30.39,ENE,65,7.0,9.0,42,0.00,,,0.00,664.0,meteohub,2013-02-13 20:40:00,
2013-02-13 12:45:00,49.6,26.2,30.38,ENE,65,0.0,9.0,40,0.00,,,0.00,664.0,meteohub,2013-02-13 20:45:00,
2013-02-13 12:50:00,49.6,25.7,30.38,NNE,31,0.0,9.0,39,0.00,,,0.00,659.0,meteohub,2013-02-13 20:50:00,
2013-02-13 12:55:00,50.7,27.3,30.38,South,184,8.0,9.0,40,0.00,,,0.00,659.0,meteohub,2013-02-13 20:55:00,
2013-02-13 13:00:00,50.4,26.4,30.38,WSW,257,5.0,9.0,39,0.00,,,0.00,659.0,meteohub,2013-02-13 21:00:00,
2013-02-13 13:05:00,50.4,27.0,30.37,ESE,117,3.0,9.0,40,0.00,,,0.00,654.0,meteohub,2013-02-13 21:05:00,
2013-02-13 13:10:00,51.3,26.6,30.38,NNE,26,3.0,9.0,38,0.00,,,0.00,654.0,meteohub,2013-02-13 21:10:00,
2013-02-13 13:15:00,52.2,27.3,30.37,NNW,328,8.0,8.0,38,0.00,,,0.00,650.0,meteohub,2013-02-13 21:15:00,
2013-02-13 13:20:00,51.4,26.6,30.37,NNW,328,0.0,8.0,38,0.00,,,0.00,650.0,meteohub,2013-02-13 21:20:00,
2013-02-13 13:25:00,51.3,26.6,30.36,NNW,328,5.0,8.0,38,0.00,,,0.00,645.0,meteohub,2013-02-13 21:25:00,
2013-02-13 13:30:00,52.0,27.9,30.36,NNW,331,8.0,8.0,39,0.00,,,0.00,642.0,meteohub,2013-02-13 21:30:00,
2013-02-13 13:35:00,52.0,26.6,30.36,ENE,67,0.0,9.0,37,0.00,,,0.00,631.0,meteohub,2013-02-13 21:35:00,
2013-02-13 13:41:00,52.0,27.1,30.36,North,5,7.0,9.0,38,0.00,,,0.00,626.0,meteohub,2013-02-13 21:41:00,
2013-02-13 13:46:00,52.0,27.1,30.36,NNW,338,5.0,11.0,38,0.00,,,0.00,617.0,meteohub,2013-02-13 21:46:00,
2013-02-13 13:51:00,51.4,26.6,30.36,West,271,8.0,11.0,38,0.00,,,0.00,612.0,meteohub,2013-02-13 21:51:00,
2013-02-13 13:56:00,52.0,27.9,30.36,WNW,289,0.0,10.0,39,0.00,,,0.00,599.0,meteohub,2013-02-13 21:56:00,
2013-02-13 14:01:00,51.8,26.4,30.35,NNE,33,5.0,10.0,37,0.00,,,0.00,591.0,meteohub,2013-02-13 22:01:00,
2013-02-13 14:06:00,52.5,27.7,30.35,NNW,331,8.0,9.0,38,0.00,,,0.00,582.0,meteohub,2013-02-13 22:06:00,
2013-02-13 14:11:00,52.3,26.8,30.35,NE,40,7.0,9.0,37,0.00,,,0.00,573.0,meteohub,2013-02-13 22:11:00,
2013-02-13 14:16:00,52.2,26.1,30.35,NNE,30,3.0,9.0,36,0.00,,,0.00,561.0,meteohub,2013-02-13 22:16:00,
2013-02-13 14:21:00,52.5,26.2,30.35,North,5,8.0,11.0,36,0.00,,,0.00,548.0,meteohub,2013-02-13 22:21:00,
2013-02-13 14:26:00,52.0,25.9,30.34,NNE,25,5.0,11.0,36,0.00,,,0.00,538.0,meteohub,2013-02-13 22:26:00,
2013-02-13 14:31:00,52.3,26.2,30.34,ENE,61,3.0,11.0,36,0.00,,,0.00,527.0,meteohub,2013-02-13 22:31:00,
2013-02-13 14:36:00,52.2,26.1,30.35,ENE,61,0.0,11.0,36,0.00,,,0.00,515.0,meteohub,2013-02-13 22:36:00,
2013-02-13 14:41:00,52.3,25.5,30.35,ENE,62,5.0,9.0,35,0.00,,,0.00,504.0,meteohub,2013-02-13 22:41:00,
2013-02-13 14:46:00,51.6,25.5,30.34,ENE,62,0.0,8.0,36,0.00,,,0.00,490.0,meteohub,2013-02-13 22:46:00,
2013-02-13 14:51:00,52.0,26.6,30.34,NNE,26,7.0,8.0,37,0.00,,,0.00,480.0,meteohub,2013-02-13 22:51:00,
2013-02-13 14:57:00,52.5,26.2,30.34,ENE,57,5.0,9.0,36,0.00,,,0.00,466.0,meteohub,2013-02-13 22:57:00,
2013-02-13 15:02:00,52.7,25.9,30.34,NNE,19,3.0,9.0,35,0.00,,,0.00,450.0,meteohub,2013-02-13 23:02:00,
2013-02-13 15:07:00,52.7,26.4,30.34,NE,40,7.0,11.0,36,0.00,,,0.00,436.0,meteohub,2013-02-13 23:07:00,
2013-02-13 15:12:00,52.3,25.5,30.34,NE,42,7.0,11.0,35,0.00,,,0.00,420.0,meteohub,2013-02-13 23:12:00,
2013-02-13 15:17:00,52.3,26.2,30.34,NNE,19,5.0,11.0,36,0.00,,,0.00,410.0,meteohub,2013-02-13 23:17:00,
2013-02-13 15:22:00,52.3,26.2,30.34,North,5,0.0,9.0,36,0.00,,,0.00,394.0,meteohub,2013-02-13 23:22:00,
2013-02-13 15:27:00,52.7,25.9,30.33,NE,42,3.0,8.0,35,0.00,,,0.00,378.0,meteohub,2013-02-13 23:27:00,
2013-02-13 15:32:00,52.5,27.0,30.33,North,5,3.0,8.0,37,0.00,,,0.00,362.0,meteohub,2013-02-13 23:32:00,
2013-02-13 15:37:00,52.5,25.7,30.33,NW,325,0.0,9.0,35,0.00,,,0.00,346.0,meteohub,2013-02-13 23:37:00,
2013-02-13 15:42:00,53.1,26.1,30.33,NW,325,5.0,9.0,35,0.00,,,0.00,329.0,meteohub,2013-02-13 23:42:00,
2013-02-13 15:47:00,52.5,26.2,30.33,NE,48,5.0,9.0,36,0.00,,,0.00,313.0,meteohub,2013-02-13 23:47:00,
2013-02-13 15:52:00,52.3,26.2,30.33,NE,55,5.0,8.0,36,0.00,,,0.00,294.0,meteohub,2013-02-13 23:52:00,
2013-02-13 15:58:00,52.3,26.8,30.33,NNE,32,5.0,8.0,37,0.00,,,0.00,271.0,meteohub,2013-02-13 23:58:00,
2013-02-13 16:03:00,52.3,26.8,30.33,NNE,13,8.0,8.0,37,0.00,,,0.00,251.0,meteohub,2013-02-14 00:03:00,
2013-02-13 16:08:00,52.2,26.1,30.33,NNE,20,3.0,9.0,36,0.00,,,0.00,229.0,meteohub,2013-02-14 00:08:00,
2013-02-13 16:13:00,52.2,26.6,30.33,NNW,343,3.0,9.0,37,0.00,,,0.00,211.0,meteohub,2013-02-14 00:13:00,
2013-02-13 16:18:00,51.6,26.2,30.33,North,355,0.0,9.0,37,0.00,,,0.00,188.0,meteohub,2013-02-14 00:18:00,
2013-02-13 16:23:00,52.2,26.6,30.33,North,355,5.0,9.0,37,0.00,,,0.00,167.0,meteohub,2013-02-14 00:23:00,
2013-02-13 16:28:00,51.8,26.4,30.33,North,355,5.0,9.0,37,0.00,,,0.00,146.0,meteohub,2013-02-14 00:28:00,
2013-02-13 16:33:00,51.4,26.1,30.32,NNW,328,7.0,9.0,37,0.00,,,0.00,125.0,meteohub,2013-02-14 00:33:00,
2013-02-13 16:38:00,51.3,26.6,30.32,NNW,328,5.0,9.0,38,0.00,,,0.00,107.0,meteohub,2013-02-14 00:38:00,
2013-02-13 16:43:00,50.9,26.2,30.32,North,5,0.0,9.0,38,0.00,,,0.00,90.0,meteohub,2013-02-14 00:43:00,
2013-02-13 16:48:00,50.4,26.4,30.32,NNW,344,0.0,8.0,39,0.00,,,0.00,72.0,meteohub,2013-02-14 00:48:00,
2013-02-13 16:53:00,50.2,26.2,30.32,NNW,344,0.0,8.0,39,0.00,,,0.00,40.0,meteohub,2013-02-14 00:53:00,
2013-02-13 16:58:00,49.5,25.5,30.32,NNW,336,5.0,8.0,39,0.00,,,0.00,18.0,meteohub,2013-02-14 00:58:00,
2013-02-13 17:03:00,47.8,25.9,30.32,NW,323,7.0,8.0,42,0.00,,,0.00,16.0,meteohub,2013-02-14 01:03:00,
2013-02-13 17:09:00,46.2,25.5,30.32,NW,323,5.0,8.0,44,0.00,,,0.00,14.0,meteohub,2013-02-14 01:09:00,
2013-02-13 17:14:00,45.3,25.7,30.32,NW,323,7.0,8.0,46,0.00,,,0.00,12.0,meteohub,2013-02-14 01:14:00,
2013-02-13 17:19:00,44.4,25.5,30.32,NW,323,3.0,8.0,47,0.00,,,0.00,9.0,meteohub,2013-02-14 01:19:00,
2013-02-13 17:24:00,43.9,25.5,30.32,NW,321,5.0,7.0,48,0.00,,,0.00,7.0,meteohub,2013-02-14 01:24:00,
2013-02-13 17:29:00,43.3,25.5,30.32,NW,312,5.0,7.0,49,0.00,,,0.00,5.0,meteohub,2013-02-14 01:29:00,
2013-02-13 17:34:00,43.0,25.7,30.32,WNW,296,3.0,7.0,50,0.00,,,0.00,0.0,meteohub,2013-02-14 01:34:00,
2013-02-13 17:39:00,42.4,25.2,30.32,WNW,293,6.0,7.0,50,0.00,,,0.00,0.0,meteohub,2013-02-14 01:39:00,
2013-02-13 17:44:00,42.1,25.3,30.32,WNW,290,3.0,7.0,51,0.00,,,0.00,0.0,meteohub,2013-02-14 01:44:00,
2013-02-13 17:49:00,41.4,25.5,30.32,SW,236,5.0,6.0,53,0.00,,,0.00,0.0,meteohub,2013-02-14 01:49:00,
2013-02-13 17:54:00,41.2,25.9,30.32,SW,227,6.0,8.0,54,0.00,,,0.00,0.0,meteohub,2013-02-14 01:54:00,
2013-02-13 17:59:00,40.8,25.5,30.33,SW,227,6.0,8.0,54,0.00,,,0.00,0.0,meteohub,2013-02-14 01:59:00,
2013-02-13 18:04:00,40.5,25.5,30.33,SW,227,8.0,9.0,55,0.00,,,0.00,0.0,meteohub,2013-02-14 02:04:00,
2013-02-13 18:09:00,40.3,25.3,30.33,SW,225,5.0,9.0,55,0.00,,,0.00,0.0,meteohub,2013-02-14 02:09:00,
2013-02-13 18:15:00,40.3,25.9,30.33,SW,229,5.0,9.0,56,0.00,,,0.00,0.0,meteohub,2013-02-14 02:15:00,
2013-02-13 18:20:00,39.7,25.3,30.33,SW,228,6.0,8.0,56,0.00,,,0.00,0.0,meteohub,2013-02-14 02:20:00,
2013-02-13 18:25:00,39.7,25.7,30.33,SW,232,5.0,8.0,57,0.00,,,0.00,0.0,meteohub,2013-02-14 02:25:00,
2013-02-13 18:30:00,39.4,25.3,30.33,SW,227,8.0,8.0,57,0.00,,,0.00,0.0,meteohub,2013-02-14 02:30:00,
2013-02-13 18:35:00,39.4,25.9,30.33,SW,236,6.0,9.0,58,0.00,,,0.00,0.0,meteohub,2013-02-14 02:35:00,
2013-02-13 18:40:00,39.4,25.9,30.34,SW,227,5.0,9.0,58,0.00,,,0.00,0.0,meteohub,2013-02-14 02:40:00,
2013-02-13 18:45:00,39.0,25.5,30.34,SW,230,6.0,9.0,58,0.00,,,0.00,0.0,meteohub,2013-02-14 02:45:00,
2013-02-13 18:50:00,39.0,25.5,30.34,SW,227,3.0,10.0,58,0.00,,,0.00,0.0,meteohub,2013-02-14 02:50:00,
2013-02-13 18:55:00,38.8,25.7,30.34,SW,227,5.0,10.0,59,0.00,,,0.00,0.0,meteohub,2013-02-14 02:55:00,
2013-02-13 19:00:00,38.8,25.3,30.34,SW,226,6.0,9.0,58,0.00,,,0.00,0.0,meteohub,2013-02-14 03:00:00,
2013-02-13 19:05:00,39.0,25.5,30.34,SW,224,6.0,8.0,58,0.00,,,0.00,0.0,meteohub,2013-02-14 03:05:00,
2013-02-13 19:10:00,38.8,25.3,30.34,SW,225,6.0,8.0,58,0.00,,,0.00,0.0,meteohub,2013-02-14 03:10:00,
2013-02-13 19:15:00,38.3,25.7,30.34,SW,229,8.0,9.0,60,0.00,,,0.00,0.0,meteohub,2013-02-14 03:15:00,
2013-02-13 19:21:00,37.9,25.7,30.35,SW,230,8.0,9.0,61,0.00,,,0.00,0.0,meteohub,2013-02-14 03:21:00,
2013-02-13 19:26:00,37.8,25.5,30.35,SW,230,5.0,9.0,61,0.00,,,0.00,0.0,meteohub,2013-02-14 03:26:00,
2013-02-13 19:31:00,37.8,25.5,30.34,SW,227,5.0,9.0,61,0.00,,,0.00,0.0,meteohub,2013-02-14 03:31:00,
2013-02-13 19:36:00,37.6,25.7,30.34,SW,232,8.0,9.0,62,0.00,,,0.00,0.0,meteohub,2013-02-14 03:36:00,
2013-02-13 19:41:00,37.4,25.5,30.34,SW,229,5.0,9.0,62,0.00,,,0.00,0.0,meteohub,2013-02-14 03:41:00,
2013-02-13 19:46:00,37.6,25.7,30.34,SW,225,8.0,9.0,62,0.00,,,0.00,0.0,meteohub,2013-02-14 03:46:00,
2013-02-13 19:51:00,37.6,25.7,30.34,SW,230,6.0,9.0,62,0.00,,,0.00,0.0,meteohub,2013-02-14 03:51:00,
2013-02-13 19:56:00,37.6,25.7,30.34,SW,229,6.0,9.0,62,0.00,,,0.00,0.0,meteohub,2013-02-14 03:56:00,
2013-02-13 20:01:00,37.6,25.3,30.34,SW,229,6.0,9.0,61,0.00,,,0.00,0.0,meteohub,2013-02-14 04:01:00,
2013-02-13 20:06:00,37.2,25.3,30.35,SW,229,3.0,9.0,62,0.00,,,0.00,0.0,meteohub,2013-02-14 04:06:00,
2013-02-13 20:11:00,37.0,25.2,30.34,SW,228,3.0,8.0,62,0.00,,,0.00,0.0,meteohub,2013-02-14 04:11:00,
2013-02-13 20:16:00,36.7,25.3,30.35,SW,216,6.0,9.0,63,0.00,,,0.00,0.0,meteohub,2013-02-14 04:16:00,
2013-02-13 20:21:00,36.7,25.3,30.35,SW,218,5.0,9.0,63,0.00,,,0.00,0.0,meteohub,2013-02-14 04:21:00,
2013-02-13 20:26:00,36.3,25.0,30.35,SW,218,5.0,9.0,63,0.00,,,0.00,0.0,meteohub,2013-02-14 04:26:00,
2013-02-13 20:32:00,36.1,25.2,30.35,SW,218,5.0,8.0,64,0.00,,,0.00,0.0,meteohub,2013-02-14 04:32:00,
2013-02-13 20:37:00,35.8,24.8,30.35,SW,218,6.0,8.0,64,0.00,,,0.00,0.0,meteohub,2013-02-14 04:37:00,
2013-02-13 20:42:00,35.4,25.2,30.35,SW,228,5.0,8.0,66,0.00,,,0.00,0.0,meteohub,2013-02-14 04:42:00,
2013-02-13 20:47:00,35.2,25.0,30.35,SW,228,6.0,8.0,66,0.00,,,0.00,0.0,meteohub,2013-02-14 04:47:00,
2013-02-13 20:52:00,35.4,25.2,30.35,SW,228,5.0,8.0,66,0.00,,,0.00,0.0,meteohub,2013-02-14 04:52:00,
2013-02-13 20:57:00,35.4,25.2,30.35,SW,228,6.0,8.0,66,0.00,,,0.00,0.0,meteohub,2013-02-14 04:57:00,
2013-02-13 21:00:00,35.2,25.0,30.35,SW,228,5.0,8.0,66,0.00,,,0.00,0.0,meteohub,2013-02-14 05:00:00,
2013-02-13 21:01:00,35.2,25.0,30.35,SW,228,3.0,8.0,66,0.00,,,0.00,0.0,meteohub,2013-02-14 05:01:00,
2013-02-13 21:02:00,35.2,25.0,30.35,SW,228,3.0,8.0,66,0.00,,,0.00,0.0,meteohub,2013-02-14 05:02:00,
2013-02-13 21:07:00,35.2,25.3,30.35,SW,230,5.0,8.0,67,0.00,,,0.00,0.0,meteohub,2013-02-14 05:07:00,
2013-02-13 21:12:00,35.2,25.3,30.35,SW,234,6.0,9.0,67,0.00,,,0.00,0.0,meteohub,2013-02-14 05:12:00,
2013-02-13 21:17:00,35.2,25.3,30.35,SW,234,3.0,9.0,67,0.00,,,0.00,0.0,meteohub,2013-02-14 05:17:00,
2013-02-13 21:22:00,35.1,24.8,30.35,SW,234,5.0,9.0,66,0.00,,,0.00,0.0,meteohub,2013-02-14 05:22:00,
2013-02-13 21:27:00,34.9,24.6,30.35,SW,234,6.0,8.0,66,0.00,,,0.00,0.0,meteohub,2013-02-14 05:27:00,
2013-02-13 21:32:00,35.1,25.2,30.34,SW,234,6.0,8.0,67,0.00,,,0.00,0.0,meteohub,2013-02-14 05:32:00,
2013-02-13 21:37:00,35.2,25.0,30.34,SW,234,3.0,8.0,66,0.00,,,0.00,0.0,meteohub,2013-02-14 05:37:00,
2013-02-13 21:43:00,35.1,24.4,30.35,SW,234,0.0,8.0,65,0.00,,,0.00,0.0,meteohub,2013-02-14 05:43:00,
2013-02-13 21:48:00,35.4,24.8,30.35,SW,234,3.0,8.0,65,0.00,,,0.00,0.0,meteohub,2013-02-14 05:48:00,
2013-02-13 21:53:00,35.2,24.6,30.35,SW,234,0.0,6.0,65,0.00,,,0.00,0.0,meteohub,2013-02-14 05:53:00,
2013-02-13 21:58:00,35.2,24.6,30.35,SW,234,0.0,5.0,65,0.00,,,0.00,0.0,meteohub,2013-02-14 05:58:00,
2013-02-13 22:03:00,34.5,24.3,30.35,SW,234,0.0,5.0,66,0.00,,,0.00,0.0,meteohub,2013-02-14 06:03:00,
2013-02-13 22:08:00,33.8,24.1,30.36,SW,234,0.0,3.0,67,0.00,,,0.00,0.0,meteohub,2013-02-14 06:08:00,
2013-02-13 22:13:00,33.3,23.9,30.36,SW,234,0.0,3.0,68,0.00,,,0.00,0.0,meteohub,2013-02-14 06:13:00,
2013-02-13 22:18:00,33.1,24.4,30.36,SW,234,0.0,3.0,70,0.00,,,0.00,0.0,meteohub,2013-02-14 06:18:00,
2013-02-13 22:23:00,33.1,24.1,30.36,SW,234,3.0,3.0,69,0.00,,,0.00,0.0,meteohub,2013-02-14 06:23:00,
2013-02-13 22:28:00,32.4,23.4,30.36,SW,234,0.0,5.0,69,0.00,,,0.00,0.0,meteohub,2013-02-14 06:28:00,
2013-02-13 22:33:00,31.3,23.4,30.36,SW,234,5.0,6.0,72,0.00,,,0.00,0.0,meteohub,2013-02-14 06:33:00,
2013-02-13 22:38:00,31.5,24.1,30.35,SW,234,0.0,6.0,74,0.00,,,0.00,0.0,meteohub,2013-02-14 06:38:00,
2013-02-13 22:43:00,32.2,24.8,30.36,SW,217,3.0,6.0,74,0.00,,,0.00,0.0,meteohub,2013-02-14 06:43:00,
2013-02-13 22:48:00,32.4,24.3,30.35,SW,221,5.0,8.0,72,0.00,,,0.00,0.0,meteohub,2013-02-14 06:48:00,
2013-02-13 22:53:00,32.0,24.3,30.35,SW,222,0.0,8.0,73,0.00,,,0.00,0.0,meteohub,2013-02-14 06:53:00,
2013-02-13 22:58:00,32.0,24.3,30.35,SW,222,5.0,8.0,73,0.00,,,0.00,0.0,meteohub,2013-02-14 06:58:00,
2013-02-13 23:04:00,31.8,24.1,30.35,SW,222,0.0,6.0,73,0.00,,,0.00,0.0,meteohub,2013-02-14 07:04:00,
2013-02-13 23:09:00,31.5,23.9,30.36,SW,222,0.0,6.0,73,0.00,,,0.00,0.0,meteohub,2013-02-14 07:09:00,
2013-02-13 23:14:00,31.1,23.7,30.36,SW,222,0.0,6.0,74,0.00,,,0.00,0.0,meteohub,2013-02-14 07:14:00,
2013-02-13 23:19:00,30.9,23.9,30.36,SW,222,0.0,6.0,75,0.00,,,0.00,0.0,meteohub,2013-02-14 07:19:00,
2013-02-13 23:24:00,30.9,23.9,30.36,SW,222,5.0,5.0,75,0.00,,,0.00,0.0,meteohub,2013-02-14 07:24:00,
2013-02-13 23:29:00,31.1,24.4,30.36,SW,222,5.0,6.0,76,0.00,,,0.00,0.0,meteohub,2013-02-14 07:29:00,
2013-02-13 23:34:00,31.1,24.4,30.36,SW,222,3.0,6.0,76,0.00,,,0.00,0.0,meteohub,2013-02-14 07:34:00,
2013-02-13 23:39:00,30.9,24.3,30.35,SW,222,0.0,6.0,76,0.00,,,0.00,0.0,meteohub,2013-02-14 07:39:00,
2013-02-13 23:44:00,30.7,23.7,30.35,SW,222,3.0,6.0,75,0.00,,,0.00,0.0,meteohub,2013-02-14 07:44:00,
2013-02-13 23:49:00,30.6,23.9,30.35,SW,222,3.0,5.0,76,0.00,,,0.00,0.0,meteohub,2013-02-14 07:49:00,
2013-02-13 23:54:00,30.7,24.1,30.35,SW,222,3.0,5.0,76,0.00,,,0.00,0.0,meteohub,2013-02-14 07:54:00,
2013-02-13 23:59:00,30.7,24.1,30.36,SW,222,3.0,6.0,76,0.00,,,0.00,0.0,meteohub,2013-02-14 07:59:00,